TIME,DELAY(SENSOR),PRES,T(CTD),SAL,OXYGEN,RAWTEMP,T(OPTODE),TCPHASE,FLUOR,BETA(BETA700),BETA(BETA412),BETA(BETA440),CDOM,C(CSC),ED(ED411.90),ED(ED443.80),ED(ED489.40),ED(ED554.70),LU(LU412.20),LU(LU443.80),LU(LU489.40),LU(LU555.00),COMP,TILTX,TILTX(TILTY),CHECK
1351178575,5803,497.0899963378906000,17.0988006591796880,36.3875007629394500,224.0077056884765600,199.1768951416015600,17.1067199707031250,32.4538917541503900,49,97,63,76,50,1754,2147481133,2147769216,2147557604,2147797641,2147314139,2147475264,2147710491,2148246985,1411,7,13,10001
1351178690,5803,486.2900085449219000,17.2206993103027340,36.4127998352050800,226.5079040527343800,195.3544006347656200,17.2229995727539060,32.2737388610839840,50,97,63,75,50,1764,2147485878,2147767177,2147560000,2147795072,2147309851,2147476141,2147711250,2148245577,1326,6,13,24219
1351178807,5805,475.7799987792969000,17.3680000305175780,36.4389991760253900,228.6389007568359400,190.8609924316406200,17.3596897125244140,32.1046409606933600,49,97,63,76,50,1758,2147484041,2147766409,2147560557,2147797568,2147312164,2147476388,2147711250,2148244571,1611,7,13,3211
1351178946,5806,463.9700012207031000,17.4470996856689450,36.4542999267578100,229.7682037353515600,187.9691925048828000,17.4476795196533200,32.0088005065918000,49,99,62,77,50,1762,2147484443,2147769316,2147559478,2147795739,2147308077,2147475419,2147709760,2148245284,1411,7,12,33147
1351179075,5804,453.6000061035156000,17.5202007293701170,36.4682006835937500,230.0373992919922000,185.7129058837890600,17.5163307189941400,31.9644203186035160,50,97,63,77,51,1757,2147487222,2147765513,2147556178,2147793508,2147314331,2147479396,2147710802,2148245129,1670,7,13,32047
1351179214,5802,442.8699951171875000,17.6116008758544920,36.4844017028808600,230.9111022949218800,182.6806945800781200,17.6086101531982420,31.8800697326660160,49,98,63,75,50,1764,2147484516,2147762267,2147555849,2147795977,2147310144,2147479972,2147708690,2148243849,2011,7,13,40891
1351179398,5802,428.4700012207031000,17.7320995330810550,36.5060997009277340,232.4326934814453000,178.6490020751953000,17.7313194274902340,31.7506599426269530,50,98,63,77,51,1762,2147484498,2147767963,2147558400,2147794340,2147312539,2147477714,2147709686,2148240228,3010,7,12,61746
1351179515,5798,417.2399902343750000,17.8038005828857420,36.5200004577636700,233.6717987060547000,176.2758026123047000,17.8035602569580080,31.6579704284667970,50,98,62,77,50,1764,2147484443,2147765805,2147557001,2147793426,2147304356,2147477878,2147706971,2148242441,3296,7,13,24052
1351179630,5806,405.5400085449219000,17.8710002899169920,36.5313987731933600,234.5868072509765600,174.0204010009765600,17.8722190856933600,31.5830898284912100,50,98,62,76,51,1765,2147487158,2147766080,2147558016,2147796507,2147313801,2147483410,2147703963,2148241161,3570,7,12,28563
1351179736,5803,394.4100036621094000,17.9314002990722660,36.5414009094238300,235.1078948974609400,171.9441986083984400,17.9354305267334000,31.5300693511962900,50,97,63,78,50,1767,2147487296,2147768228,2147556589,2147794660,2147306715,2147482139,2147707437,2148242578,3012,7,12,47742
1351179839,5802,383.2799987792969000,17.9881992340087900,36.5495986938476560,234.9638061523437500,170.2140045166015600,17.9881095886230470,31.5138092041015620,50,98,64,76,50,1764,2147488786,2147765769,2147556909,2147794075,2147311561,2147482157,2147712356,2148240658,3382,7,13,51915
1351179942,5805,371.9400024414062500,18.0440998077392580,36.5582008361816400,234.5478057861328000,168.4445037841797000,18.0419998168945300,31.5098400115966800,49,98,63,76,50,1764,2147488219,2147765074,2147556278,2147795474,2147310765,2147479881,2147711817,2148243574,3578,7,13,2750
1351180062,5805,359.6499938964844000,18.1016006469726560,36.5648002624511700,234.2100067138672000,166.4795074462890600,18.1018390655517580,31.4998893737792970,48,99,61,76,50,1769,2147489005,2147764141,2147557824,2147796141,2147306852,2147478637,2147708809,2148243190,334,7,13,10090
1351180189,5803,347.9899902343750000,18.1599998474121100,36.5713996887207000,233.6701965332031200,164.6336059570312500,18.1580600738525400,31.5009994506835940,49,99,63,77,50,1766,2147488566,2147768768,2147556909,2147794450,2147310390,2147477668,2147708854,2148244123,513,7,13,5240
1351180306,5805,337.1300048828125000,18.2087001800537100,36.5760002136230500,232.9969024658203000,163.0520019531250000,18.2062397003173830,31.5123405456542970,49,98,63,76,50,1768,2147491940,2147763154,2147557732,2147793435,2147308882,2147480822,2147709513,2148240438,191,7,13,8198
1351180421,5805,326.5799865722656000,18.2539005279541000,36.5792999267578100,231.6902008056640600,161.4958953857422000,18.2536392211914060,31.5550308227539060,50,98,62,76,50,1769,2147489453,2147768301,2147561097,2147789586,2147306907,2147482980,2147706843,2148245869,364,7,13,56618
1351180548,5805,315.2699890136719000,18.3115997314453120,36.5844993591308600,230.7019958496093800,159.6394042968750000,18.3102092742919920,31.5784397125244140,49,99,62,77,50,1771,2147490020,2147767058,2147560905,2147794185,2147302281,2147483081,2147707218,2148244598,323,7,12,57799
1351180677,5804,304.2699890136719000,18.3791999816894530,36.5913009643554700,229.5955047607422000,157.4228057861328000,18.3777408599853500,31.6030292510986330,50,98,63,76,50,1769,2147485760,2147766244,2147559762,2147791862,2147303259,2147480585,2147710326,2148241280,338,7,12,8432
1351180804,5804,293.9100036621094000,18.4727993011474600,36.5998992919921900,228.5563049316406200,154.4927062988281200,18.4670391082763670,31.6150493621826170,50,98,62,76,50,1769,2147491227,2147766363,2147569325,2147791625,2147308352,2147481097,2147713334,2148243702,253,7,13,7386
1351180945,5803,282.8200073242187500,18.5517997741699220,36.6046981811523440,226.8303985595703000,151.8170928955078000,18.5485897064209000,31.6649703979492200,50,99,63,75,50,1771,2147493577,2147770998,2147571236,2147791936,2147303177,2147483894,2147713380,2148242925,3264,7,13,60043
1351181096,5804,271.4899902343750000,18.6837997436523440,36.6109008789062500,226.4804992675781200,147.6118927001953000,18.6767997741699220,31.6258392333984380,49,99,63,76,50,1772,2147492022,2147772041,2147579419,2147791424,2147304420,2147485156,2147721014,2148239990,2735,7,13,38494
1351181256,5806,259.3099975585937500,18.8209991455078120,36.6136016845703100,226.8453063964843800,142.9781951904297000,18.8181095123291000,31.5454006195068360,50,97,63,76,51,1771,2147493101,2147770925,2147578944,2147788900,2147305444,2147482157,2147717275,2148241225,3176,7,12,17431
1351181381,5802,247.6199951171875000,18.9745998382568360,36.6115989685058600,228.6011047363281200,138.0079956054687500,18.9697399139404300,31.3919105529785160,50,97,63,76,51,1773,2147492470,2147774601,2147595081,2147792347,2147295917,2147484233,2147723611,2148243227,3408,7,12,23530
1351181496,5804,236.6499938964843800,19.0681991577148440,36.6044998168945300,231.9434051513672000,134.7904968261718800,19.0679302215576170,31.1857795715332030,50,99,63,76,50,1772,2147496832,2147778331,2147617472,2147791332,2147305179,2147492169,2147733348,2148242422,3579,7,13,59398
1351181614,5806,225.7799987792968800,19.1580009460449220,36.5898017883300800,238.1224060058593800,131.9306030273437500,19.1552200317382800,30.8534507751464840,50,99,62,75,50,1776,2147492827,2147787702,2147641828,2147790912,2147314624,2147496521,2147752685,2148239515,266,7,12,60777
1351181729,5806,215.7100067138672000,19.2094993591308600,36.5797996520996100,243.6488952636718800,130.2093048095703000,19.2077808380126950,30.5753002166748050,50,101,63,76,50,1775,2147498788,2147788644,2147653668,2147790107,2147311232,2147502043,2147757238,2148241298,30,7,12,39100
1351181858,5803,204.3899993896484400,19.2880992889404300,36.5788993835449200,246.2480926513672000,127.7062988281250000,19.2842006683349600,30.4248409271240230,50,97,62,77,50,1774,2147500242,2147803574,2147679881,2147788498,2147313938,2147509494,2147779090,2148243693,290,7,12,54174
1351181937,5802,197.5500030517578000,19.3148994445800780,36.5774002075195300,246.4026031494140600,126.7555007934570300,19.3132400512695300,30.4055309295654300,50,98,62,77,50,1776,2147500096,2147817627,2147731145,2147789659,2147310336,2147517010,2147806290,2148242697,487,7,12,43100
1351181992,5804,192.8300018310547000,19.3437995910644530,36.5773010253906250,246.7147064208984400,125.8809967041015600,19.3399505615234380,30.3799896240234380,50,98,63,76,50,1773,2147505188,2147826697,2147755776,2147790198,2147311862,2147522614,2147824246,2148243876,646,7,12,50035
1351182047,5802,188.1499938964843800,19.3518009185791000,36.5764999389648440,247.3096923828125000,125.7222976684570300,19.3448009490966800,30.3515205383300780,50,98,62,76,50,1775,2147507072,2147842642,2147788635,2147788690,2147313865,2147532845,2147837769,2148246747,558,7,12,15911
1351182102,5806,183.4299926757812500,19.3833007812500000,36.5755996704101560,247.7221069335937500,124.2699966430664000,19.3891601562500000,30.3140697479248050,50,98,62,76,49,1777,2147503177,2147824630,2147736420,2147789494,2147312923,2147523108,2147809472,2148243803,454,7,12,3635
1351182178,5807,177.3600006103515600,19.4477005004882800,36.5843009948730500,247.4785003662109400,122.4185028076171900,19.4457206726074220,30.3008804321289060,50,99,62,77,50,1776,2147511314,2147865417,2147850386,2147788013,2147313472,2147546221,2147869312,2148246683,159,6,12,62118
1351182233,5804,173.4100036621093800,19.4895000457763670,36.5887985229492200,247.1493072509765600,121.1342010498046900,19.4849605560302730,30.2988395690917970,50,100,63,77,49,1777,2147510070,2147842148,2147771721,2147789796,2147317248,2147533056,2147829604,2148243200,3346,7,12,26096
1351182288,5804,169.5299987792968800,19.5438995361328120,36.5943984985351560,246.5509948730468800,119.3470993041992200,19.5395793914794920,30.3024501800537100,50,100,63,76,50,1775,2147509348,2147842889,2147763501,2147791780,2147314157,2147528722,2147822537,2148240923,3236,7,12,32727
1351182343,5803,165.7100067138672000,19.5799999237060550,36.5996017456054700,246.0023956298828000,117.8503036499023400,19.5853195190429700,30.3074302673339840,50,99,63,76,50,1776,2147522404,2147895954,2147908251,2147788955,2147320374,2147563894,2147895305,2148247734,2860,7,12,57390
1351182398,5803,162.0000000000000000,19.6438999176025400,36.6039009094238300,245.6853027343750000,116.1521987915039000,19.6372299194335940,30.2996692657470700,50,102,64,77,50,1774,2147526518,2147913334,2147962221,2147791158,2147326217,2147574363,2147924105,2148247808,3141,7,12,42496
1351182453,5804,158.3099975585937500,19.6916007995605470,36.6072998046875000,245.5393981933593800,114.5572967529296900,19.6859893798828120,30.2856292724609380,51,101,63,76,50,1774,2147534107,2147933723,2148011684,2147789357,2147320978,2147589010,2147954386,2148251995,3481,7,12,40529
1351182531,5804,153.5399932861328000,19.7740001678466800,36.6142997741699200,245.2382049560547000,111.6356964111328100,19.7753295898437500,30.2612895965576170,55,103,63,78,49,1774,2147548324,2147978349,2148132900,2147789741,2147335012,2147615259,2148013028,2148252955,179,7,13,25874
1351182610,5804,149.4700012207031200,19.9234008789062500,36.6288986206054700,244.7980957031250000,106.9718017578125000,19.9179992675781250,30.2205009460449220,57,106,63,76,50,1773,2147553298,2147992292,2148152438,2147790820,2147339968,2147621211,2148021174,2148258834,230,7,13,47256
1351182689,5806,145.5599975585937500,19.9948997497558600,36.6355018615722660,244.0034942626953000,104.7022018432617200,19.9874496459960940,30.2269802093505860,59,106,64,76,50,1772,2147578112,2148073088,2148360969,2147789440,2147346578,2147662299,2148119753,2148259776,237,8,13,62399
1351182768,5806,141.6499938964843800,20.0932998657226560,36.6428985595703100,244.3910980224609400,101.8081970214843800,20.0760307312011720,30.1722297668457030,58,106,64,77,50,1772,2147603510,2148155858,2148557677,2147790857,2147355346,2147701120,2148211181,2148265517,621,7,12,10804
1351182850,5804,137.6399993896484400,20.1420001983642580,36.6454010009765600,244.3034057617187500,100.0746002197265600,20.1291103363037100,30.1536407470703120,60,111,64,78,50,1774,2147616402,2148180827,2148569938,2147789494,2147364288,2147707181,2148206134,2148267035,851,7,13,57196
1351182941,5802,133.5399932861328000,20.2045001983642580,36.6488990783691400,244.5917053222656200,97.8406829833984400,20.1975193023681640,30.1119098663330080,63,106,64,78,50,1772,2147658642,2148295030,2148826980,2147793572,2147380214,2147759936,2148318656,2148273508,1193,7,12,37441
1351183032,5806,130.0099945068359400,20.2758007049560550,36.6531982421875000,245.0054931640625000,95.7912063598632800,20.2602996826171880,30.0668907165527340,63,108,62,78,50,1772,2147696941,2148380461,2148999030,2147795227,2147388059,2147799707,2148394038,2148279670,1471,7,13,28629
1351183161,5804,126.0599975585937500,20.3887996673584000,36.6590003967285160,246.9073028564453000,92.3139266967773400,20.3668403625488280,29.9370994567871100,63,110,63,78,50,1775,2147782034,2148592868,2149489764,2147799945,2147426112,2147900178,2148607451,2148293997,2393,7,13,6703
1351183312,5806,122.0400009155273400,20.4596996307373050,36.6627998352050800,249.5816040039062500,89.4077606201171900,20.4559192657470700,29.7820796966552730,64,108,62,77,50,1773,2147831817,2148670582,2149623826,2147802971,2147443757,2147927643,2148651163,2148297499,2989,7,13,44282
1351183447,5802,117.0699996948242200,20.6361999511718750,36.6720008850097660,247.2574005126953000,83.8043136596679700,20.6277599334716800,29.8127098083496100,65,109,63,78,50,1773,2147996790,2149025325,2150293650,2147810788,2147502217,2148076297,2148920310,2148320795,2951,7,12,21578
1351183514,5804,113.6500015258789000,20.7143001556396500,36.6651992797851560,248.0050964355468800,81.5731887817382800,20.6962108612060550,29.7510509490966800,68,115,64,79,50,1775,2148124982,2149272667,2150717037,2147821586,2147547181,2148170688,2149080420,2148333440,3175,8,12,51421
1351183605,5805,109.5899963378906200,20.7942008972167970,36.6685981750488300,247.8804931640625000,79.3168029785156200,20.7654590606689450,29.7278099060058600,69,113,63,78,50,1772,2148303698,2149570185,2151190290,2147833645,2147610624,2148287780,2149258093,2148349476,206,8,12,38714
1351183708,5803,105.9300003051757800,20.9682006835937500,36.6778984069824200,249.6026000976562500,73.5925827026367200,20.9412193298339840,29.5794906616210940,68,111,63,78,52,1774,2148578797,2150055305,2152006930,2147850532,2147697974,2148472594,2149572224,2148381010,3584,7,12,31838
1351183862,5805,102.2699966430664000,21.2098007202148440,36.6884994506835940,250.7624053955078000,65.4052276611328100,21.1928291320800780,29.4250793457031250,75,114,64,78,49,1766,2148907474,2150658404,2153149714,2147875931,2147811648,2148700224,2149989897,2148412608,213,7,12,64652
1351184097,5804,99.2399978637695300,21.4577999114990230,36.6867980957031250,252.6643981933593800,57.0070304870605500,21.4512195587158200,29.2371692657470700,76,116,63,78,50,1764,2149354029,2151445540,2154634029,2147913051,2147959826,2148982198,2150534829,2148463734,471,7,12,61956
1351184164,5804,97.0100021362304700,21.5438003540039060,36.6876983642578100,255.1557006835937500,54.5829505920410160,21.5258598327636720,29.1008892059326170,70,115,63,78,50,1765,2149794331,2152179684,2155876352,2147951561,2148106002,2149246793,2150997120,2148510610,683,7,12,57798
1351184219,5802,95.0599975585937500,21.7241992950439450,36.7011985778808600,257.6564941406250000,49.3389511108398440,21.6874103546142580,28.9300804138183600,72,114,62,78,50,1765,2150164672,2152741833,2156743872,2147981074,2148236068,2149465362,2151345709,2148539648,1104,7,12,8228
1351184286,5805,92.9199981689453100,21.7413005828857420,36.6744995117187500,260.0338134765625000,48.0814781188964840,21.7261695861816400,28.8155002593994140,71,113,65,79,50,1767,2150642678,2153470893,2157801874,2148013924,2148410057,2149744950,2151777033,2148584173,1469,7,12,36118
1351184353,5803,90.9800033569336000,21.9463996887207030,36.6772003173828100,261.6827087402344000,42.0264091491699200,21.9129009246826170,28.6725406646728500,72,117,63,80,50,1762,2150451684,2152886262,2156380918,2147986660,2148352054,2149527899,2151241563,2148548278,1394,7,13,16043
1351184432,5803,88.7900009155273400,22.0112991333007800,36.6507987976074200,263.1549072265625000,39.3136901855468750,21.9966106414794920,28.5787601470947270,69,117,65,80,49,1763,2151305197,2154224585,2158431369,2148055424,2148652434,2150030381,2152001965,2148624292,1213,7,13,14489
1351184487,5803,86.6500015258789000,22.0832996368408200,36.6544990539550800,263.8602905273437500,36.7206611633300800,22.0766601562500000,28.5181503295898440,70,119,64,78,50,1761,2150519488,2152452662,2154701019,2147966601,2148393481,2149352201,2150568877,2148507209,1046,7,13,57543
1351184542,5804,84.5000000000000000,22.3875007629394530,36.6795005798339840,263.4397888183594000,28.3322906494140620,22.3358592987060550,28.4314098358154300,70,118,63,80,48,1761,2152807963,2156268123,2161040045,2148154395,2149230189,2150870107,2153121664,2148747629,1051,7,12,7804
1351184597,5804,82.7300033569336000,22.4169998168945300,36.6778984069824200,264.5964050292969000,26.9334907531738280,22.3791103363037100,28.3674507141113280,68,120,64,81,49,1762,2153606774,2157369773,2162527762,2148220900,2149519241,2151293257,2153702966,2148810386,1102,8,12,19708
1351184652,5802,81.2200012207031200,22.4887008666992200,36.6628990173339840,264.9967956542969000,23.9411602020263670,22.4716796875000000,28.3145198822021500,72,121,63,80,49,1759,2152651364,2155467483,2158888557,2148125376,2149169563,2150512109,2152208292,2148677211,1605,7,12,21228
1351184743,5803,78.4800033569336000,22.6037998199462900,36.6641998291015600,265.7513122558594000,19.9359607696533200,22.5956592559814450,28.2350196838378900,70,122,65,81,50,1758,2154870436,2158630957,2163330532,2148305947,2150004534,2151795894,2154108096,2148874633,2183,7,12,65450
1351184798,5801,76.1600036621093800,22.7870998382568360,36.6806983947753900,263.1185913085937500,12.6729803085327150,22.8206901550292970,28.2516193389892580,80,130,64,81,50,1753,2156033014,2159997531,2164712603,2148394550,2150418285,2152281609,2154649792,2148948288,2032,7,12,60699
1351184853,5805,74.1999969482421900,23.2252006530761720,36.7504997253418000,245.8894042968750000,1.0038349628448486,23.1828403472900400,28.8293800354003900,102,141,65,82,50,1743,2159870372,2165499501,2172201782,2148696137,2151628178,2154102491,2157352594,2149244278,1550,8,12,22192
1351184908,5804,72.9899978637695300,23.2724990844726560,36.7022018432617200,238.0971069335937500,-1.3551319837570190,23.2561492919921880,29.1459693908691400,108,148,65,83,50,1738,2161934290,2168309595,2175639268,2148846162,2152178066,2154858157,2158454244,2149383616,1296,7,12,38013
1351185059,5806,71.3099975585937500,23.4083003997802730,36.7001991271972660,232.8522949218750000,-6.1354188919067380,23.4048004150390620,29.3262290954589840,107,160,67,86,49,1735,2161190482,2166872502,2172321700,2148697014,2151759963,2154020196,2157186121,2149257819,100,8,12,61192
1351185138,5805,68.9499969482421900,23.6310005187988280,36.6473999023437500,235.2362060546875000,-10.8663301467895500,23.5520496368408200,29.1569690704345700,90,141,65,83,50,1746,2166340324,2173838848,2180515794,2149098624,2153234980,2155990985,2159826596,2149600841,235,8,12,19520
1351185205,5804,67.4899978637695300,23.7308998107910160,36.6623001098632800,236.4055938720703000,-15.9020299911499020,23.7089290618896500,29.0408496856689450,80,136,65,82,51,1747,2169499638,2177737700,2184970843,2149341568,2154278848,2157397357,2161702619,2149830665,1037,8,12,15922
1351185356,5805,64.2900009155273400,23.9090003967285160,36.6543006896972660,237.2657012939453000,-21.2689609527587900,23.8763008117675780,28.9349098205566400,72,131,64,83,50,1747,2164904146,2169213156,2171294372,2148773531,2153181888,2155318537,2157895076,2149381220,2093,8,12,40873
1351185411,5805,61.9799995422363300,23.9545993804931640,36.6250991821289060,240.9485015869140600,-23.5916404724121100,23.9487991333007800,28.7411804199218750,70,129,64,81,50,1749,2185129078,2195346002,2202267830,2150584338,2159774125,2164290541,2169404251,2150844845,2316,8,12,11614
1351185466,5800,59.9700012207031250,24.2320003509521500,36.6068000793457000,241.2431030273437500,-32.1355895996093750,24.2157592773437500,28.6223907470703120,68,129,65,82,49,1747,2184524224,2192953078,2197731547,2150475456,2160165458,2164301622,2168434349,2150751725,2432,7,12,13447
1351185545,5803,58.7999992370605500,24.3684005737304700,36.5871009826660160,241.1414031982422000,-36.4055480957031250,24.3493499755859380,28.5741500854492200,64,127,63,83,49,1745,2195032082,2205684635,2211547821,2151307190,2164204489,2169396516,2174043190,2151445357,3576,7,12,57689
1351185720,5805,56.3400001525878900,25.1828002929687500,36.4241981506347660,247.4042053222656200,-61.0490188598632800,25.1228408813476560,28.0001296997070300,64,129,65,82,50,1744,2190663789,2197980598,2200719954,2150839533,2164703506,2169053961,2172015808,2151164699,785,6,12,22489
1351186294,5806,54.7700004577636700,25.6336002349853500,36.2640991210937500,244.1101074218750000,-77.4651107788086000,25.6405296325683600,27.9407997131347660,64,141,66,81,48,1738,2192808914,2200708480,2204344265,2151320585,2165274066,2169401956,2172031990,2151315986,858,6,12,48790
1351186752,5803,52.9300003051757800,25.7019004821777340,36.2337989807128900,242.4313049316406200,-79.9116134643554700,25.7178592681884770,27.9834403991699220,57,116,63,81,50,1736,2200213202,2209502162,2213925549,2152176100,2170261924,2175110500,2178082852,2152035757,3505,8,12,9111
1351186929,5802,50.9099998474121100,25.7129001617431640,36.2285995483398440,241.9288024902343800,-79.9257736206054700,25.7182998657226560,28.0049896240234380,59,119,63,81,50,1737,2192517284,2198865179,2201296886,2151694619,2167866962,2171628516,2173679003,2151560018,2182,8,12,41091
1351187025,5803,48.6399993896484400,25.7180004119873050,36.2271995544433600,241.7498931884765600,-80.0073013305664000,25.7208805084228500,28.0118293762207030,58,119,62,81,50,1736,2200529938,2207943744,2211521929,2153178166,2175464621,2179652982,2180924068,2152552649,2151,8,12,40147
1351187071,5805,46.7500000000000000,25.7143993377685550,36.2252006530761700,241.6244049072265600,-79.8924331665039000,25.7172508239746100,28.0186405181884770,58,118,62,81,47,1737,2199328045,2205901330,2208816164,2153274203,2177308233,2180719762,2180752758,2152542939,2118,8,12,2262
1351187117,5803,44.8800010681152340,25.7147006988525400,36.2254981994628900,241.6186981201172000,-79.9029464721679700,25.7175807952880860,28.0187091827392580,58,121,63,80,49,1739,2206160630,2213474998,2217127652,2154635556,2184090642,2187696795,2186931108,2153406445,2141,8,12,52390
1351187150,5804,43.5600013732910160,25.7154006958007800,36.2242012023925800,241.7355957031250000,-79.8843612670898400,25.7169990539550780,28.0139007568359380,58,121,64,81,49,1737,2205425252,2212177051,2215471341,2154803117,2185350482,2188290130,2186501577,2153356909,2298,8,12,21873
1351187196,5803,41.6800003051757800,25.7178001403808600,36.2253990173339840,241.7030944824218800,-79.9138565063476600,25.7179298400878900,28.0149803161621100,58,122,63,81,49,1738,2211772827,2219237440,2223374902,2156423250,2192350006,2195303131,2192377545,2154254336,2530,8,12,55571
1351187242,5803,39.7200012207031250,25.7148990631103500,36.2229003906250000,241.6703033447265600,-79.9337310791015600,25.7185592651367200,28.0162696838378900,58,123,62,82,49,1734,2220259556,2228712722,2234072740,2158735049,2201411812,2204707629,2200663012,2155500781,2627,8,12,1217
1351187299,5805,36.9700012207031250,25.7168998718261720,36.2209014892578100,241.7666015625000000,-79.9671707153320300,25.7196102142334000,28.0115795135498050,56,122,64,81,49,1734,2234225892,2243970907,2250766025,2162902052,2215919460,2219308406,2213267090,2157532361,2502,8,12,63976
1351187332,5804,34.9500007629394500,25.7166004180908200,36.2210006713867200,241.6649017333984400,-79.9667816162109400,25.7196006774902340,28.0160999298095700,57,117,63,82,50,1733,2241887515,2251563410,2258866806,2165637558,2224886829,2227927122,2220350235,2158846509,2414,8,12,44775